Home   Weather   Virudhunagar   Past weeks

Flag for India Past Weather in Virudhunagar, Tamil Nadu, India — Yesterday and Last 2 Weeks

91 °F

Scattered clouds.

Feels Like: 96 °F
Forecast: 74 / 94 °F
Wind: 3 mph from Northwest

Location: Tiruchchirapalli

Current Time: Oct 28, 2016 at 1:58:28 PM

Latest Report: Oct 28, 2016 at 1:30 PM

Visibility: 2 mi

Pressure: 29.74 "Hg

Humidity: 46%

Dew Point: 68 °F

Location of VirudhunagarLocation

Past Weather in Virudhunagar — Graph


Virudhunagar Temperature Yesterday

Maximum temperature yesterday: 91 °F (at 1:00 PM)
Minimum temperature yesterday: 77 °F (at 5:00 AM)
Average temperature yesterday: 84 °F

High & Low Weather Summary for the Past Weeks

High95 °F (Oct 14, 2:00 PM)94% (Oct 17, 4:00 AM)29.89 "Hg (Oct 17, 4:00 AM)
Low77 °F (Oct 14, 1:00 AM)39% (Oct 26, 3:30 PM)29.62 "Hg (Oct 19, 4:00 PM)
Average84 °F70%29.78 "Hg
* Reported Oct 13 12:30 PM — Oct 28 12:30 PM, Virudhunagar, Weather by CustomWeather, © 2016

Note: Actual official high and low records may vary slightly from our data, if they occured in-between our weather recording intervals... More about our weather records


Virudhunagar Weather History for the Previous 24 Hours

Scroll right to see more
Time TempWeatherWind HumidityBarometerVisibility
12:30 PM
Fri, Oct 28
91 °FScattered clouds.6 mph49%29.77 "Hg2 mi
12:00 PM91 °FScattered clouds.7 mph49%29.80 "Hg2 mi
11:30 AM91 °FScattered clouds.7 mph49%29.83 "Hg2 mi
11:00 AM88 °FHaze.5 mph59%29.83 "Hg2 mi
10:30 AM86 °FHaze.6 mph62%29.83 "Hg2 mi
10:00 AM86 °FHaze.3 mph62%29.86 "Hg2 mi
9:30 AM84 °FHaze.5 mph66%29.86 "Hg2 mi
9:00 AM84 °FHaze.8 mph66%29.86 "Hg2 mi
8:30 AM82 °FHaze.5 mph70%29.86 "Hg2 mi
8:00 AM81 °FHaze.5 mph74%29.83 "Hg2 mi
7:30 AM79 °FHaze.3 mph79%29.83 "Hg2 mi
7:00 AM77 °FFog.No wind83%29.80 "Hg1 mi
6:30 AM77 °FFog.No wind83%29.83 "Hg1 mi
6:00 AM77 °FFog.No wind83%29.80 "Hg1 mi
5:30 AM77 °FFog.No wind83%29.80 "Hg1 mi
5:00 AM77 °FFog.No wind83%29.77 "Hg1 mi
4:30 AM79 °FFog.No wind79%29.77 "Hg1 mi
4:00 AM79 °FFog.No wind79%29.77 "Hg1 mi
3:30 AM79 °FFog.No wind79%29.77 "Hg1 mi
3:00 AM79 °FFog.No wind79%29.77 "Hg2 mi
2:30 AM79 °FFog.6 mph79%29.77 "Hg2 mi
2:00 AM81 °FHaze.3 mph79%29.77 "Hg2 mi
1:30 AM81 °FHaze.3 mph79%29.80 "Hg2 mi
1:00 AM81 °FHaze.5 mph79%29.83 "Hg2 mi
12:30 AM81 °FHaze.5 mph79%29.83 "Hg2 mi
12:00 AM81 °FHaze.5 mph74%29.83 "Hg2 mi
11:30 PM
Thu, Oct 27
81 °FHaze.5 mph74%29.83 "Hg2 mi
11:00 PM81 °FHaze.6 mph70%29.83 "Hg2 mi
10:30 PM81 °FHaze.7 mph70%29.83 "Hg2 mi
10:00 PM82 °FHaze.5 mph66%29.83 "Hg2 mi
9:30 PM82 °FHaze.6 mph66%29.83 "Hg2 mi
9:00 PM82 °FHaze.5 mph66%29.83 "Hg2 mi
8:30 PM82 °FHaze.5 mph66%29.80 "Hg2 mi
8:00 PM86 °FHaze.7 mph66%29.80 "Hg2 mi
7:30 PM86 °FHaze.5 mph66%29.77 "Hg2 mi
7:00 PM86 °FHaze.3 mph66%29.77 "Hg2 mi
6:30 PM88 °FHaze.3 mph55%29.77 "Hg2 mi
6:00 PM90 °FHaze.3 mph52%29.74 "Hg2 mi
4:30 PM90 °FScattered clouds.3 mph49%29.74 "Hg2 mi
4:00 PM91 °FScattered clouds.3 mph46%29.74 "Hg2 mi
3:30 PM91 °FScattered clouds.3 mph46%29.74 "Hg2 mi
3:00 PM91 °FScattered clouds.No wind46%29.74 "Hg2 mi
2:30 PM91 °FScattered clouds.3 mph46%29.77 "Hg2 mi
2:00 PM91 °FScattered clouds.3 mph46%29.77 "Hg2 mi
1:30 PM91 °FScattered clouds.5 mph46%29.80 "Hg2 mi
1:00 PM91 °FScattered clouds.3 mph49%29.80 "Hg2 mi
Weather by CustomWeather, © 2016

See weather overviewHow to use our weather pages